FW9966 Weather Reports


time (UTC)temp
C
wind
direction
speed
KPH
gust
KPH
rain 1hr
cm
rain 24hr
cm
rain mn
cm
humidity
%
barometer
mb
20260505032345 -17 0.0 0.0 0.00 0.15 0.15 1015.2
20260505031842 -17 0.0 0.0 0.00 0.15 0.15 1015.2
20260505031339 -17 0.0 0.0 0.00 0.15 0.15 1015.0
20260505030837 -17 0.0 0.0 0.00 0.15 0.15 1014.8
20260505030332 -17 0.0 0.0 0.00 0.15 0.15 1014.8
20260505025828 -17 0.0 0.0 0.00 0.15 0.15 1014.9
20260505025326 -17 0.0 0.0 0.00 0.15 0.15 1015.1
20260505024824 -17 0.0 0.0 0.00 0.15 0.15 1015.1
20260505024322 23 130 1.6 1.6 0.00 0.15 0.15 89 1015.2
20260505023818 23 130 1.6 1.6 0.00 0.15 0.15 89 1015.2
20260505023315 23 130 1.6 1.6 0.00 0.15 0.15 89 1015.1
20260505022813 23 130 1.6 1.6 0.00 0.15 0.15 89 1015.2
20260505022310 23 130 1.6 1.6 0.00 0.15 0.15 89 1015.1
20260505021807 23 130 1.6 1.6 0.00 0.15 0.15 89 1015.0
20260505021303 23 130 1.6 1.6 0.00 0.15 0.15 89 1015.3
20260505020759 23 130 1.6 1.6 0.00 0.15 0.15 89 1015.3
20260505020254 23 130 1.6 1.6 0.00 0.15 0.15 89 1015.1
20260505015752 23 130 1.6 1.6 0.00 0.15 0.15 89 1015.1
20260505015249 23 130 1.6 1.6 0.00 0.15 0.15 89 1015.2
20260505014746 23 130 1.6 1.6 0.00 0.15 0.15 89 1015.1
20260505014243 23 114 3.2 3.2 0.00 0.15 0.15 89 1014.9
20260505013739 23 103 4.8 4.8 0.00 0.15 0.15 89 1014.9
20260505013237 23 77 4.8 8.0 0.00 0.15 0.15 89 1015.1
20260505012735 23 110 1.6 1.6 0.00 0.15 0.15 89 1014.7
20260505012232 23 46 3.2 4.8 0.00 0.15 0.15 89 1014.6
20260505011728 23 128 6.4 9.7 0.00 0.15 0.15 89 1014.9
20260505011225 23 103 3.2 3.2 0.00 0.15 0.15 89 1015.0
20260505010720 23 161 4.8 9.7 0.00 0.15 0.15 89 1014.6
20260505010217 23 102 8.0 14.5 0.00 0.15 0.15 89 1014.6
20260505005714 23 101 4.8 8.0 0.00 0.15 0.15 89 1014.6
20260505005211 23 138 3.2 4.8 0.00 0.15 0.15 89 1014.7
20260505004708 23 168 1.6 3.2 0.00 0.15 0.15 89 1014.6
20260505004204 23 140 1.6 1.6 0.00 0.15 0.15 89 1014.4
20260505003702 23 99 1.6 3.2 0.00 0.15 0.15 89 1014.5
20260505003159 23 109 1.6 1.6 0.00 0.15 0.15 90 1014.3
20260505002655 23 103 0.0 3.2 0.00 0.15 0.15 90 1014.5
20260505002153 23 105 4.8 4.8 0.00 0.15 0.15 90 1014.6
20260505001650 23 107 0.0 1.6 0.00 0.15 0.15 90 1014.9
20260505001148 23 107 0.0 1.6 0.00 0.15 0.15 90 1014.6
20260505000644 25 137 6.4 9.7 0.00 0.15 0.15 84 1014.3
20260505000142 25 137 6.4 9.7 0.00 0.15 0.15 84 1014.3
20260504235638 25 137 6.4 9.7 0.00 0.15 0.15 84 1014.3
20260504235135 25 137 6.4 9.7 0.00 0.15 0.15 84 1014.3
20260504234632 25 137 6.4 9.7 0.00 0.15 0.15 84 1014.3
20260504234130 25 53 4.8 8.0 0.00 0.15 0.15 84 1014.3
20260504233625 25 64 4.8 9.7 0.00 0.15 0.15 84 1014.2
20260504233121 25 81 3.2 4.8 0.00 0.15 0.15 84 1014.3
20260504232619 25 76 3.2 4.8 0.00 0.15 0.15 84 1014.3
20260504232116 25 43 4.8 8.0 0.00 0.15 0.15 84 1014.0
20260504231613 25 80 4.8 8.0 0.00 0.15 0.15 83 1014.1
20260504231109 25 80 4.8 8.0 0.00 0.15 0.15 83 1014.1
20260504230605 25 80 4.8 8.0 0.00 0.15 0.15 83 1014.0
20260504230104 25 80 4.8 8.0 0.00 0.15 0.15 83 1013.8
20260504225601 25 80 4.8 8.0 0.00 0.15 0.15 83 1013.9
20260504225058 25 80 6.4 12.9 0.00 0.15 0.15 83 1013.9
20260504224554 25 62 6.4 8.0 0.00 0.15 0.15 83 1013.9
20260504224052 25 62 6.4 8.0 0.00 0.15 0.15 83 1014.0
20260504223549 25 62 6.4 8.0 0.00 0.15 0.15 83 1013.9
20260504223044 25 62 6.4 8.0 0.00 0.15 0.15 83 1013.8
20260504222541 25 62 6.4 8.0 0.00 0.15 0.15 83 1013.8
20260504222039 25 84 4.8 8.0 0.00 0.15 0.15 83 1013.7
20260504221536 25 62 6.4 11.3 0.00 0.15 0.15 83 1013.9
20260504221032 25 62 6.4 11.3 0.00 0.15 0.15 83 1014.0
20260504220529 25 88 6.4 8.0 0.00 0.15 0.15 84 1013.9
20260504220026 25 88 6.4 8.0 0.00 0.15 0.15 84 1013.8
20260504215522 25 50 6.4 8.0 0.00 0.15 0.15 84 1013.7
20260504215020 25 50 6.4 8.0 0.00 0.15 0.15 84 1013.5
20260504214516 25 59 8.0 14.5 0.00 0.15 0.15 84 1013.6
20260504214012 25 59 8.0 14.5 0.00 0.15 0.15 84 1013.8
20260504213509 25 43 3.2 9.7 0.00 0.15 0.15 85 1013.7
20260504213007 25 43 3.2 9.7 0.00 0.15 0.15 85 1013.7
20260504212502 25 66 3.2 4.8 0.00 0.15 0.15 84 1013.8
20260504212000 25 66 3.2 4.8 0.00 0.15 0.15 84 1013.8
20260504211456 25 359 6.4 16.1 0.00 0.15 0.15 85 1014.0
20260504210954 25 83 6.4 9.7 0.00 0.15 0.15 84 1014.2
20260504210450 25 84 4.8 8.0 0.00 0.15 0.15 84 1014.1
20260504205947 25 84 4.8 8.0 0.00 0.15 0.15 84 1014.1
20260504205444 25 103 6.4 8.0 0.00 0.15 0.15 87 1014.0
20260504204943 25 103 6.4 8.0 0.00 0.15 0.15 87 1014.2
20260504204441 25 93 4.8 9.7 0.00 0.15 0.15 87 1014.3
20260504203940 25 105 6.4 11.3 0.00 0.15 0.15 86 1014.1
20260504203437 25 105 6.4 11.3 0.00 0.15 0.15 86 1014.1
20260504202933 26 53 4.8 11.3 0.00 0.15 0.15 86 1014.2
20260504202429 26 53 4.8 11.3 0.00 0.15 0.15 86 1014.3
20260504201926 26 95 8.0 11.3 0.00 0.15 0.15 80 1014.4
20260504201424 26 95 8.0 11.3 0.00 0.15 0.15 80 1014.1
20260504200921 26 122 6.4 9.7 0.00 0.15 0.15 80 1014.3
20260504200418 26 122 6.4 9.7 0.00 0.15 0.15 80 1014.3
20260504195915 26 104 3.2 4.8 0.00 0.15 0.15 80 1014.1
20260504195410 27 56 8.0 11.3 0.00 0.15 0.15 78 1014.1
20260504194907 26 84 6.4 8.0 0.00 0.15 0.15 80 1014.4
20260504194403 26 84 6.4 8.0 0.00 0.15 0.15 80 1014.6
20260504193859 26 74 8.0 14.5 0.00 0.15 0.15 80 1014.2
20260504193356 26 79 8.0 16.1 0.00 0.15 0.15 80 1014.4
20260504192855 26 64 8.0 12.9 0.00 0.15 0.15 78 1014.7
20260504192352 26 64 8.0 12.9 0.00 0.15 0.15 78 1014.8
20260504191850 26 64 8.0 12.9 0.00 0.15 0.15 78 1014.7
20260504191348 26 64 8.0 12.9 0.00 0.15 0.15 78 1014.6
20260504190843 26 78 6.4 11.3 0.00 0.15 0.15 79 1014.7
20260504190339 26 78 6.4 11.3 0.00 0.15 0.15 79 1014.7
20260504185836 26 150 9.7 16.1 0.00 0.15 0.15 80 1014.8
20260504185333 26 87 6.4 12.9 0.00 0.15 0.15 81 1015.0
20260504184829 26 59 4.8 9.7 0.00 0.15 0.15 82 1015.3
20260504184325 26 59 4.8 9.7 0.00 0.15 0.15 82 1015.2
20260504183821 26 59 4.8 9.7 0.00 0.15 0.15 82 1015.1
20260504183319 26 59 4.8 9.7 0.00 0.15 0.15 82 1015.2
20260504182816 26 59 4.8 9.7 0.00 0.15 0.15 82 1015.3
20260504182314 26 67 9.7 12.9 0.00 0.15 0.15 81 1015.3
20260504181811 26 67 9.7 12.9 0.00 0.15 0.15 81 1015.4
20260504181308 26 67 9.7 12.9 0.00 0.15 0.15 81 1015.4
20260504180807 26 67 9.7 12.9 0.00 0.15 0.15 81 1015.8
20260504180305 25 355 8.0 11.3 0.00 0.15 0.15 83 1015.6
20260504175803 25 36 3.2 8.0 0.00 0.15 0.15 84 1015.4
20260504175259 25 111 0.0 1.6 0.00 0.15 0.15 87 1015.6
20260504174757 25 111 0.0 1.6 0.00 0.15 0.15 87 1015.7
20260504174255 25 111 0.0 1.6 0.00 0.15 0.15 87 1015.7
20260504173751 25 111 0.0 1.6 0.00 0.15 0.15 87 1015.8
20260504173248 25 62 6.4 8.0 0.00 0.15 0.15 87 1015.6
20260504172745 24 127 4.8 8.0 0.00 0.15 0.15 86 1015.9
20260504172241 24 153 4.8 4.8 0.00 0.15 0.15 86 1015.9
20260504171737 23 116 3.2 4.8 0.00 0.15 0.15 88 1015.9
20260504171235 23 116 3.2 4.8 0.18 0.15 0.15 88 1016.1
20260504170732 23 116 3.2 4.8 0.18 0.15 0.15 88 1015.7
20260504170229 26 105 3.2 3.2 0.00 0.13 0.13 82 1015.8
20260504160147 25 30 4.8 9.7 0.00 0.13 0.13 84 1015.9
20260504151115 26 138 1.6 3.2 0.00 0.13 0.13 82 1015.8
20260504150612 27 113 3.2 4.8 0.00 0.13 0.13 81 1015.9
20260504150109 26 67 1.6 3.2 0.00 0.13 0.13 82 1015.9
20260504141038 25 78 3.2 3.2 0.00 0.13 0.13 84 1015.7
20260504140534 25 78 3.2 3.2 0.00 0.13 0.13 84 1015.5
20260504130459 23 100 0.0 1.6 0.00 0.13 0.13 95 1015.3
20260504110346 21 116 0.0 0.0 0.79 0.13 0.13 98 1014.3
20260504100303 -17 0.0 0.0 0.00 0.00 0.00 1014.5
20260504081657 -17 0.0 0.0 0.00 0.00 0.00 1013.4
20260504081153 -17 0.0 0.0 0.00 0.00 0.00 1013.5
20260504080649 -17 0.0 0.0 0.00 0.00 0.00 1013.4
20260504080146 -17 0.0 0.0 0.00 0.00 0.00 1013.6
20260504070114 -17 0.0 0.0 0.00 0.00 0.00 1014.0
20260504050502 -17 0.0 0.0 0.00 0.00 0.00 1015.9
20260504045959 -17 0.0 0.0 0.00 0.00 0.00 1015.8
20260504045455 -17 0.0 0.0 0.00 0.00 0.00 1015.5
20260504044951 -17 0.0 0.0 0.00 0.00 0.00 1015.5
20260504044449 -17 0.0 0.0 0.00 0.00 0.00 1015.3
20260504043946 -17 0.0 0.0 0.00 0.00 0.00 1015.1
20260504043443 -17 0.0 0.0 0.00 0.00 0.00 1015.2
20260504042941 -17 0.0 0.0 0.00 0.00 0.00 1015.5
20260504042437 -17 0.0 0.0 0.00 0.00 0.00 1015.3
20260504041934 -17 0.0 0.0 0.00 0.00 0.00 1015.1
20260504041430 -17 0.0 0.0 0.00 0.00 0.00 1015.3
20260504040926 -17 0.0 0.0 0.00 0.00 0.00 1015.3
20260504040424 -17 0.0 0.0 0.00 0.00 0.00 1015.4
20260504035920 -17 0.0 0.0 0.00 1.32 1.32 1015.5
20260504035417 -17 0.0 0.0 0.00 1.32 1.32 1015.8
20260504034914 -17 0.0 0.0 0.00 1.32 1.32 1015.7
20260504034412 -17 0.0 0.0 0.00 1.32 1.32 1015.5
20260504033908 -17 0.0 0.0 0.00 1.32 1.32 1015.9
20260504033406 -17 0.0 0.0 0.00 1.32 1.32 1015.8
20260504032903 -17 0.0 0.0 0.00 1.32 1.32 1015.4